Location: Sungai Liu
(2.3667°N, 113.8667°E)
Time: 11:45:04
(UTC+00:00)

IUS R/B (1) - Pass Details

Date: 20 May 2022
Orbit: 320 x 34578 km, 28.5° (Epoch: 04 July)

Event Time Altitude Azimuth Distance (km) Brightness Sun altitude
Exits shadow 20:58:28 21° 189° (S) 1,304 3.9 -18.5°
Maximum altitude 20:59:22 23° 165° (SSE) 1,062 3.7 -18.3°
Drops below altitude 10° 21:01:25 10° 105° (ESE) 1,318 5.0 -17.8°
Sets 21:03:03 0° 86° (E) 2,037 6.6 -17.4°
